Time,TemperatureF,DewpointF,PressureIn,WindDirection,WindDirectionDegrees,WindSpeedMPH,WindSpeedGustMPH,Humidity,HourlyPrecipIn,Conditions,Clouds,dailyrainin,SolarRadiationWatts/m^2,SoftwareType,DateUTC
2013-01-31 00:04:00,66.6,61.6,30.02,NW,321,6.0,6.0,84,0.00,RA,,0.00,0.0,WeatherDisplay:10.37,2013-01-31 10:04:00,
2013-01-31 00:09:00,66.6,61.6,30.01,NE,50,10.4,10.4,84,0.00,RA,,0.00,0.0,WeatherDisplay:10.37,2013-01-31 10:09:00,
2013-01-31 00:14:00,66.6,61.6,30.01,NE,40,8.1,8.1,84,0.00,CLR,,0.00,0.0,WeatherDisplay:10.37,2013-01-31 10:14:00,
2013-01-31 00:19:00,66.6,61.6,30.01,North,355,6.9,6.9,84,0.00,CLR,,0.00,0.0,WeatherDisplay:10.37,2013-01-31 10:19:00,
2013-01-31 00:24:00,66.6,61.6,30.01,North,9,4.6,4.6,84,0.00,CLR,,0.00,0.0,WeatherDisplay:10.37,2013-01-31 10:24:00,
2013-01-31 00:29:00,66.5,61.5,30.01,NNE,24,8.1,8.1,84,0.00,CLR,,0.00,0.0,WeatherDisplay:10.37,2013-01-31 10:29:00,
2013-01-31 00:34:00,66.5,61.5,30.01,NNE,13,7.0,7.0,84,0.00,CLR,,0.00,0.0,WeatherDisplay:10.37,2013-01-31 10:34:00,
2013-01-31 00:39:00,66.5,61.5,30.01,NNW,333,4.6,4.6,84,0.00,CLR,,0.00,0.0,WeatherDisplay:10.37,2013-01-31 10:39:00,
2013-01-31 00:44:00,66.4,61.4,30.00,NNW,338,4.6,4.6,84,0.00,CLR,,0.00,0.0,WeatherDisplay:10.37,2013-01-31 10:44:00,
2013-01-31 00:49:00,66.3,61.3,30.00,North,351,5.8,5.8,84,0.00,CLR,,0.00,0.0,WeatherDisplay:10.37,2013-01-31 10:49:00,
2013-01-31 00:54:00,66.3,61.7,30.00,NNE,23,4.6,4.6,85,0.00,CLR,,0.00,0.0,WeatherDisplay:10.37,2013-01-31 10:54:00,
2013-01-31 00:59:00,66.3,61.7,30.00,North,11,5.8,5.8,85,0.00,CLR,,0.00,0.0,WeatherDisplay:10.37,2013-01-31 10:59:00,
2013-01-31 01:04:00,66.3,61.7,30.00,North,350,7.0,7.0,85,0.00,CLR,,0.00,0.0,WeatherDisplay:10.37,2013-01-31 11:04:00,
2013-01-31 01:09:00,66.3,61.7,30.00,NE,36,3.5,3.5,85,0.00,CLR,,0.00,0.0,WeatherDisplay:10.37,2013-01-31 11:09:00,
2013-01-31 01:14:00,66.3,61.7,30.00,NNE,19,5.8,5.8,85,0.00,CLR,,0.00,0.0,WeatherDisplay:10.37,2013-01-31 11:14:00,
2013-01-31 01:19:00,66.2,61.6,30.00,North,5,10.4,10.4,85,0.00,CLR,,0.00,0.0,WeatherDisplay:10.37,2013-01-31 11:19:00,
2013-01-31 01:24:00,66.2,61.6,30.00,NNW,341,6.0,6.0,85,0.00,CLR,,0.00,0.0,WeatherDisplay:10.37,2013-01-31 11:24:00,
2013-01-31 01:29:00,66.1,61.5,30.00,NNE,32,8.1,8.1,85,0.00,CLR,,0.00,0.0,WeatherDisplay:10.37,2013-01-31 11:29:00,
2013-01-31 01:34:00,66.1,61.5,30.00,North,355,9.2,9.2,85,0.00,CLR,,0.00,0.0,WeatherDisplay:10.37,2013-01-31 11:34:00,
2013-01-31 01:39:00,66.1,61.5,30.00,NNE,24,6.9,6.9,85,0.00,CLR,,0.00,0.0,WeatherDisplay:10.37,2013-01-31 11:39:00,
2013-01-31 01:44:00,66.1,61.5,30.00,North,355,11.5,11.5,85,0.00,CLR,,0.00,0.0,WeatherDisplay:10.37,2013-01-31 11:44:00,
2013-01-31 01:49:00,66.2,61.6,30.00,North,355,5.8,5.8,85,0.00,CLR,,0.00,0.0,WeatherDisplay:10.37,2013-01-31 11:49:00,
2013-01-31 01:54:00,66.1,61.5,30.00,North,355,6.9,6.9,85,0.00,CLR,,0.00,0.0,WeatherDisplay:10.37,2013-01-31 11:54:00,
2013-01-31 01:59:00,66.1,61.5,30.00,NE,44,3.5,3.5,85,0.00,CLR,,0.00,0.0,WeatherDisplay:10.37,2013-01-31 11:59:00,
2013-01-31 02:04:00,66.1,61.5,30.00,NNE,15,9.2,9.2,85,0.00,CLR,,0.00,0.0,WeatherDisplay:10.37,2013-01-31 12:04:00,
2013-01-31 02:09:00,66.1,61.5,30.00,ENE,57,8.1,8.1,85,0.00,CLR,,0.00,0.0,WeatherDisplay:10.37,2013-01-31 12:09:00,
2013-01-31 02:14:00,66.1,61.5,30.00,North,5,4.6,4.6,85,0.00,CLR,,0.00,0.0,WeatherDisplay:10.37,2013-01-31 12:14:00,
2013-01-31 02:19:00,66.1,61.1,29.99,North,5,6.9,6.9,84,0.00,CLR,,0.00,0.0,WeatherDisplay:10.37,2013-01-31 12:19:00,
2013-01-31 02:24:00,66.1,61.1,29.99,North,9,5.8,5.8,84,0.00,CLR,,0.00,0.0,WeatherDisplay:10.37,2013-01-31 12:24:00,
2013-01-31 02:29:00,66.1,61.1,29.99,North,5,5.0,5.0,84,0.00,CLR,,0.00,0.0,WeatherDisplay:10.37,2013-01-31 12:29:00,
2013-01-31 02:34:00,66.1,61.1,29.99,North,5,5.8,5.8,84,0.00,CLR,,0.00,0.0,WeatherDisplay:10.37,2013-01-31 12:34:00,
2013-01-31 02:39:00,66.1,61.1,29.99,NE,55,8.1,8.1,84,0.00,CLR,,0.00,0.0,WeatherDisplay:10.37,2013-01-31 12:39:00,
2013-01-31 02:44:00,66.1,61.1,29.99,North,360,6.9,6.9,84,0.00,CLR,,0.00,0.0,WeatherDisplay:10.37,2013-01-31 12:44:00,
2013-01-31 02:49:00,66.1,61.1,29.99,NNW,340,6.9,6.9,84,0.00,CLR,,0.00,0.0,WeatherDisplay:10.37,2013-01-31 12:49:00,
2013-01-31 02:54:00,66.1,61.1,29.99,North,5,9.2,9.2,84,0.00,CLR,,0.00,0.0,WeatherDisplay:10.37,2013-01-31 12:54:00,
2013-01-31 02:59:00,66.2,61.2,29.99,North,360,6.0,6.0,84,0.00,CLR,,0.00,0.0,WeatherDisplay:10.37,2013-01-31 12:59:00,
2013-01-31 03:04:00,66.2,61.2,29.99,ENE,57,5.8,5.8,84,0.00,CLR,,0.00,0.0,WeatherDisplay:10.37,2013-01-31 13:04:00,
2013-01-31 03:09:00,66.3,61.3,29.99,NNE,13,8.1,8.1,84,0.00,CLR,,0.00,0.0,WeatherDisplay:10.37,2013-01-31 13:09:00,
2013-01-31 03:14:00,66.3,61.3,29.99,ENE,63,3.5,3.5,84,0.00,CLR,,0.00,0.0,WeatherDisplay:10.37,2013-01-31 13:14:00,
2013-01-31 03:19:00,66.3,61.0,29.99,NE,34,2.3,2.8,83,0.00,CLR,,0.00,0.0,WeatherDisplay:10.37,2013-01-31 13:19:00,
2013-01-31 03:24:00,66.3,61.3,29.99,North,351,4.0,4.0,84,0.00,CLR,,0.00,0.0,WeatherDisplay:10.37,2013-01-31 13:24:00,
2013-01-31 03:29:00,66.2,61.2,29.98,NE,47,4.0,4.0,84,0.00,CLR,,0.00,0.0,WeatherDisplay:10.37,2013-01-31 13:29:00,
2013-01-31 03:34:00,66.1,61.1,29.98,North,350,5.0,5.0,84,0.00,CLR,,0.00,0.0,WeatherDisplay:10.37,2013-01-31 13:34:00,
2013-01-31 03:39:00,66.1,61.1,29.98,North,355,6.9,6.9,84,0.00,CLR,,0.00,0.0,WeatherDisplay:10.37,2013-01-31 13:39:00,
2013-01-31 03:44:00,66.2,61.2,29.98,ENE,69,4.6,4.6,84,0.00,CLR,,0.00,0.0,WeatherDisplay:10.37,2013-01-31 13:44:00,
2013-01-31 03:49:00,66.2,61.2,29.98,NNE,13,6.9,6.9,84,0.00,CLR,,0.00,0.0,WeatherDisplay:10.37,2013-01-31 13:49:00,
2013-01-31 03:54:00,66.2,61.6,29.98,NNE,14,5.8,5.8,85,0.00,CLR,,0.00,0.0,WeatherDisplay:10.37,2013-01-31 13:54:00,
2013-01-31 03:59:00,66.2,61.6,29.98,NE,54,5.8,5.8,85,0.00,CLR,,0.00,0.0,WeatherDisplay:10.37,2013-01-31 13:59:00,
2013-01-31 04:04:00,66.1,61.5,29.98,North,5,4.6,4.6,85,0.00,CLR,,0.00,0.0,WeatherDisplay:10.37,2013-01-31 14:04:00,
2013-01-31 04:09:00,66.1,61.5,29.98,NNE,17,8.1,8.1,85,0.00,CLR,,0.00,0.0,WeatherDisplay:10.37,2013-01-31 14:09:00,
2013-01-31 04:14:00,66.1,61.5,29.98,NNE,21,11.5,11.5,85,0.00,CLR,,0.00,0.0,WeatherDisplay:10.37,2013-01-31 14:14:00,
2013-01-31 04:19:00,66.2,61.6,29.98,ENE,65,5.8,5.8,85,0.00,CLR,,0.00,0.0,WeatherDisplay:10.37,2013-01-31 14:19:00,
2013-01-31 04:24:00,66.2,61.6,29.98,North,5,8.1,8.1,85,0.00,CLR,,0.00,0.0,WeatherDisplay:10.37,2013-01-31 14:24:00,
2013-01-31 04:29:00,66.2,61.6,29.98,NE,54,8.1,8.1,85,0.00,CLR,,0.00,0.0,WeatherDisplay:10.37,2013-01-31 14:29:00,
2013-01-31 04:34:00,66.2,61.6,29.98,NNW,342,5.8,5.8,85,0.00,CLR,,0.00,0.0,WeatherDisplay:10.37,2013-01-31 14:34:00,
2013-01-31 04:39:00,66.2,61.6,29.98,ENE,63,8.1,8.1,85,0.00,CLR,,0.00,0.0,WeatherDisplay:10.37,2013-01-31 14:39:00,
2013-01-31 04:44:00,66.2,61.6,29.98,NNE,19,9.2,9.2,85,0.00,CLR,,0.00,0.0,WeatherDisplay:10.37,2013-01-31 14:44:00,
2013-01-31 04:49:00,66.2,61.2,29.98,NE,46,4.6,4.6,84,0.00,CLR,,0.00,0.0,WeatherDisplay:10.37,2013-01-31 14:49:00,
2013-01-31 04:54:00,66.2,61.2,29.98,NNE,31,10.4,10.4,84,0.00,CLR,,0.00,0.0,WeatherDisplay:10.37,2013-01-31 14:54:00,
2013-01-31 04:59:00,66.2,61.2,29.98,NE,42,4.6,4.6,84,0.00,CLR,,0.00,0.0,WeatherDisplay:10.37,2013-01-31 14:59:00,
2013-01-31 05:04:00,66.1,60.8,29.98,North,5,6.9,6.9,83,0.00,CLR,,0.00,0.0,WeatherDisplay:10.37,2013-01-31 15:04:00,
2013-01-31 05:09:00,66.1,60.8,29.98,NNE,27,8.1,8.1,83,0.00,CLR,,0.00,0.0,WeatherDisplay:10.37,2013-01-31 15:09:00,
2013-01-31 05:14:00,66.1,60.8,29.98,NW,321,6.9,6.9,83,0.00,CLR,,0.00,0.0,WeatherDisplay:10.37,2013-01-31 15:14:00,
2013-01-31 05:19:00,66.1,60.8,29.98,ENE,65,8.1,8.1,83,0.00,CLR,,0.00,0.0,WeatherDisplay:10.37,2013-01-31 15:19:00,
2013-01-31 05:24:00,66.1,61.1,29.98,NNE,22,6.9,6.9,84,0.00,CLR,,0.00,0.0,WeatherDisplay:10.37,2013-01-31 15:24:00,
2013-01-31 05:29:00,66.1,61.1,29.99,NNE,20,5.8,5.8,84,0.00,CLR,,0.00,0.0,WeatherDisplay:10.37,2013-01-31 15:29:00,
2013-01-31 05:34:00,66.1,61.1,29.99,ENE,63,8.1,8.1,84,0.00,CLR,,0.00,0.0,WeatherDisplay:10.37,2013-01-31 15:34:00,
2013-01-31 05:39:00,66.1,61.1,29.98,NE,46,5.8,5.8,84,0.00,CLR,,0.00,0.0,WeatherDisplay:10.37,2013-01-31 15:39:00,
2013-01-31 05:44:00,66.1,61.1,29.98,East,99,9.2,9.2,84,0.00,CLR,,0.00,0.0,WeatherDisplay:10.37,2013-01-31 15:44:00,
2013-01-31 05:49:00,66.1,61.1,29.99,NE,35,5.8,5.8,84,0.00,CLR,,0.00,0.0,WeatherDisplay:10.37,2013-01-31 15:49:00,
2013-01-31 05:54:00,66.1,61.1,29.98,NE,38,5.8,5.8,84,0.00,CLR,,0.00,0.0,WeatherDisplay:10.37,2013-01-31 15:54:00,
2013-01-31 05:59:00,66.1,61.1,29.98,NE,46,5.8,5.8,84,0.00,CLR,,0.00,0.0,WeatherDisplay:10.37,2013-01-31 15:59:00,
2013-01-31 06:04:00,66.0,61.0,29.98,NNW,347,6.9,6.9,84,0.00,CLR,,0.00,0.0,WeatherDisplay:10.37,2013-01-31 16:04:00,
2013-01-31 06:09:00,66.1,61.1,29.99,NNE,20,10.4,10.4,84,0.00,CLR,,0.00,0.0,WeatherDisplay:10.37,2013-01-31 16:09:00,
2013-01-31 06:14:00,66.1,61.1,29.99,North,9,10.4,10.4,84,0.00,CLR,,0.00,0.0,WeatherDisplay:10.37,2013-01-31 16:14:00,
2013-01-31 06:19:00,66.2,61.2,29.99,North,5,9.2,9.2,84,0.00,CLR,,0.00,0.0,WeatherDisplay:10.37,2013-01-31 16:19:00,
2013-01-31 06:24:00,66.2,61.2,29.99,North,5,8.1,8.1,84,0.00,CLR,,0.00,0.0,WeatherDisplay:10.37,2013-01-31 16:24:00,
2013-01-31 06:29:00,66.3,61.3,29.99,NNW,342,6.9,6.9,84,0.00,CLR,,0.00,0.0,WeatherDisplay:10.37,2013-01-31 16:29:00,
2013-01-31 06:34:00,66.2,61.2,30.00,ENE,65,6.9,6.9,84,0.00,CLR,,0.00,0.0,WeatherDisplay:10.37,2013-01-31 16:34:00,
2013-01-31 06:39:00,66.2,61.2,30.00,NE,41,10.4,10.4,84,0.00,CLR,,0.00,0.0,WeatherDisplay:10.37,2013-01-31 16:39:00,
2013-01-31 06:44:00,66.3,61.3,30.00,North,5,9.2,9.2,84,0.00,CLR,,0.00,0.0,WeatherDisplay:10.37,2013-01-31 16:44:00,
2013-01-31 06:49:00,66.3,61.3,30.00,NNW,344,6.9,6.9,84,0.00,CLR,,0.00,0.0,WeatherDisplay:10.37,2013-01-31 16:49:00,
2013-01-31 06:54:00,66.4,61.4,30.00,NE,49,5.0,5.0,84,0.00,CLR,,0.00,0.0,WeatherDisplay:10.37,2013-01-31 16:54:00,
2013-01-31 06:59:00,66.4,61.4,30.00,NNE,14,8.1,8.1,84,0.00,CLR,,0.00,0.0,WeatherDisplay:10.37,2013-01-31 16:59:00,
2013-01-31 07:04:00,66.5,61.5,30.01,NNE,15,10.0,10.0,84,0.00,CLR,,0.00,0.0,WeatherDisplay:10.37,2013-01-31 17:04:00,
2013-01-31 07:09:00,66.5,61.5,30.01,North,360,8.1,8.1,84,0.00,CLR,,0.00,5.0,WeatherDisplay:10.37,2013-01-31 17:09:00,
2013-01-31 07:14:00,66.5,61.5,30.01,North,5,11.5,11.5,84,0.00,CLR,,0.00,9.0,WeatherDisplay:10.37,2013-01-31 17:14:00,
2013-01-31 07:19:00,66.5,61.5,30.01,ENE,69,6.9,6.9,84,0.00,SCT,,0.00,12.0,WeatherDisplay:10.37,2013-01-31 17:19:00,
2013-01-31 07:24:00,66.5,61.5,30.02,ENE,61,10.4,10.4,84,0.00,SCT,,0.00,18.0,WeatherDisplay:10.37,2013-01-31 17:24:00,
2013-01-31 07:29:00,66.5,61.5,30.02,NE,40,8.1,8.1,84,0.00,BKN,,0.00,21.0,WeatherDisplay:10.37,2013-01-31 17:29:00,
2013-01-31 07:34:00,66.6,61.6,30.01,NNE,20,8.1,8.1,84,0.00,BKN,,0.00,26.0,WeatherDisplay:10.37,2013-01-31 17:34:00,
2013-01-31 07:39:00,66.6,61.6,30.02,NE,35,6.9,6.9,84,0.00,BKN,,0.00,33.0,WeatherDisplay:10.37,2013-01-31 17:39:00,
2013-01-31 07:44:00,66.8,61.8,30.02,NNE,26,6.9,6.9,84,0.00,SCT,,0.00,46.0,WeatherDisplay:10.37,2013-01-31 17:44:00,
2013-01-31 07:49:00,67.0,62.0,30.02,NNW,346,11.5,11.5,84,0.00,SCT,,0.00,56.0,WeatherDisplay:10.37,2013-01-31 17:49:00,
2013-01-31 07:54:00,67.2,62.2,30.03,NNE,33,6.9,6.9,84,0.00,FEW,,0.00,69.0,WeatherDisplay:10.37,2013-01-31 17:54:00,
2013-01-31 07:59:00,67.4,62.1,30.03,NW,325,8.1,8.1,83,0.00,CLR,,0.00,88.0,WeatherDisplay:10.37,2013-01-31 17:59:00,
2013-01-31 08:04:00,67.6,62.3,30.03,NE,54,7.0,7.0,83,0.00,CLR,,0.00,104.0,WeatherDisplay:10.37,2013-01-31 18:04:00,
2013-01-31 08:09:00,67.7,62.3,30.03,NE,42,8.1,8.1,83,0.00,CLR,,0.00,123.0,WeatherDisplay:10.37,2013-01-31 18:09:00,
2013-01-31 08:14:00,67.9,62.5,30.03,North,360,10.4,10.4,83,0.00,CLR,,0.00,142.0,WeatherDisplay:10.37,2013-01-31 18:14:00,
2013-01-31 08:19:00,68.1,62.4,30.03,North,5,9.2,9.2,82,0.00,CLR,,0.00,163.0,WeatherDisplay:10.37,2013-01-31 18:19:00,
2013-01-31 08:24:00,68.3,62.6,30.03,NE,52,5.8,5.8,82,0.00,CLR,,0.00,185.0,WeatherDisplay:10.37,2013-01-31 18:24:00,
2013-01-31 08:29:00,68.5,62.8,30.03,NNW,333,10.4,10.4,82,0.00,CLR,,0.00,200.0,WeatherDisplay:10.37,2013-01-31 18:29:00,
2013-01-31 08:34:00,68.6,62.9,30.03,NNE,21,8.1,8.1,82,0.00,CLR,,0.00,225.0,WeatherDisplay:10.37,2013-01-31 18:34:00,
2013-01-31 08:39:00,68.8,63.1,30.04,ENE,76,9.2,9.2,82,0.00,CLR,,0.00,244.0,WeatherDisplay:10.37,2013-01-31 18:39:00,
2013-01-31 08:44:00,69.0,62.9,30.04,ENE,67,6.9,6.9,81,0.00,CLR,,0.00,258.0,WeatherDisplay:10.37,2013-01-31 18:44:00,
2013-01-31 08:49:00,69.2,63.1,30.04,ENE,72,8.1,8.1,81,0.00,CLR,,0.00,281.0,WeatherDisplay:10.37,2013-01-31 18:49:00,
2013-01-31 08:54:00,69.4,63.3,30.04,ENE,63,9.2,9.2,81,0.00,CLR,,0.00,299.0,WeatherDisplay:10.37,2013-01-31 18:54:00,
2013-01-31 08:59:00,69.6,63.2,30.04,NNE,14,9.2,9.2,80,0.00,CLR,,0.00,315.0,WeatherDisplay:10.37,2013-01-31 18:59:00,
2013-01-31 09:04:00,69.7,63.3,30.04,North,9,6.9,6.9,80,0.00,CLR,,0.00,334.0,WeatherDisplay:10.37,2013-01-31 19:04:00,
2013-01-31 09:09:00,69.9,63.4,30.04,NNW,344,5.8,5.8,80,0.00,CLR,,0.00,355.0,WeatherDisplay:10.37,2013-01-31 19:09:00,
2013-01-31 09:14:00,70.2,63.4,30.04,North,351,10.4,10.4,79,0.00,CLR,,0.00,369.0,WeatherDisplay:10.37,2013-01-31 19:14:00,
2013-01-31 09:19:00,70.6,63.4,30.04,East,80,9.2,9.2,78,0.00,CLR,,0.00,387.0,WeatherDisplay:10.37,2013-01-31 19:19:00,
2013-01-31 09:24:00,70.8,63.2,30.04,ESE,123,8.1,8.1,77,0.00,CLR,,0.00,404.0,WeatherDisplay:10.37,2013-01-31 19:24:00,
2013-01-31 09:29:00,71.1,63.5,30.05,NNE,22,10.4,10.4,77,0.00,CLR,,0.00,424.0,WeatherDisplay:10.37,2013-01-31 19:29:00,
2013-01-31 09:34:00,71.2,63.6,30.04,ENE,69,11.5,11.5,77,0.00,CLR,,0.00,438.0,WeatherDisplay:10.37,2013-01-31 19:34:00,
2013-01-31 09:39:00,71.3,63.7,30.04,NE,55,10.4,10.4,77,0.00,CLR,,0.00,454.0,WeatherDisplay:10.37,2013-01-31 19:39:00,
2013-01-31 09:44:00,71.5,63.9,30.05,NNW,333,9.2,9.2,77,0.00,CLR,,0.00,469.0,WeatherDisplay:10.37,2013-01-31 19:44:00,
2013-01-31 09:49:00,71.7,64.1,30.05,NNW,340,11.5,11.5,77,0.00,CLR,,0.00,489.0,WeatherDisplay:10.37,2013-01-31 19:49:00,
2013-01-31 09:54:00,71.9,64.3,30.05,North,360,10.4,10.4,77,0.00,CLR,,0.00,503.0,WeatherDisplay:10.37,2013-01-31 19:54:00,
2013-01-31 09:59:00,72.1,64.5,30.05,East,81,6.0,6.0,77,0.00,CLR,,0.00,519.0,WeatherDisplay:10.37,2013-01-31 19:59:00,
2013-01-31 10:04:00,72.3,63.9,30.05,North,360,8.1,8.1,75,0.00,CLR,,0.00,533.0,WeatherDisplay:10.37,2013-01-31 20:04:00,
2013-01-31 10:09:00,72.4,64.0,30.05,North,350,11.5,11.5,75,0.00,CLR,,0.00,547.0,WeatherDisplay:10.37,2013-01-31 20:09:00,
2013-01-31 10:14:00,72.6,63.8,30.06,North,360,10.4,10.4,74,0.00,CLR,,0.00,573.0,WeatherDisplay:10.37,2013-01-31 20:14:00,
2013-01-31 10:19:00,72.8,64.4,30.06,NE,55,9.2,9.2,75,0.00,CLR,,0.00,668.0,WeatherDisplay:10.37,2013-01-31 20:19:00,
2013-01-31 10:24:00,73.0,64.6,30.06,NE,40,4.0,4.0,75,0.00,CLR,,0.00,645.0,WeatherDisplay:10.37,2013-01-31 20:24:00,
2013-01-31 10:29:00,73.0,64.6,30.06,ENE,76,9.2,9.2,75,0.00,CLR,,0.00,619.0,WeatherDisplay:10.37,2013-01-31 20:29:00,
2013-01-31 10:34:00,73.1,64.7,30.06,NE,51,9.2,9.2,75,0.00,OVC,,0.00,142.0,WeatherDisplay:10.37,2013-01-31 20:34:00,
2013-01-31 10:39:00,73.0,63.8,30.05,NE,47,9.2,9.2,73,0.00,CLR,,0.00,635.0,WeatherDisplay:10.37,2013-01-31 20:39:00,
2013-01-31 10:44:00,73.1,63.9,30.05,ENE,60,11.5,11.5,73,0.00,CLR,,0.00,636.0,WeatherDisplay:10.37,2013-01-31 20:44:00,
2013-01-31 10:49:00,73.3,64.1,30.05,ENE,65,9.2,9.2,73,0.00,CLR,,0.00,649.0,WeatherDisplay:10.37,2013-01-31 20:49:00,
2013-01-31 10:54:00,73.5,63.9,30.05,East,96,9.2,9.2,72,0.00,CLR,,0.00,666.0,WeatherDisplay:10.37,2013-01-31 20:54:00,
2013-01-31 10:59:00,73.9,64.3,30.05,ENE,73,11.5,11.5,72,0.00,CLR,,0.00,684.0,WeatherDisplay:10.37,2013-01-31 20:59:00,
2013-01-31 11:04:00,74.1,64.1,30.05,ENE,61,11.5,11.5,71,0.00,CLR,,0.00,693.0,WeatherDisplay:10.37,2013-01-31 21:04:00,
2013-01-31 11:09:00,74.4,64.4,30.05,ENE,70,14.0,14.0,71,0.00,CLR,,0.00,705.0,WeatherDisplay:10.37,2013-01-31 21:09:00,
2013-01-31 11:14:00,74.4,64.0,30.05,ENE,76,11.5,11.5,70,0.00,CLR,,0.00,714.0,WeatherDisplay:10.37,2013-01-31 21:14:00,
2013-01-31 11:19:00,74.7,64.3,30.04,East,84,12.7,12.7,70,0.00,CLR,,0.00,731.0,WeatherDisplay:10.37,2013-01-31 21:19:00,
2013-01-31 11:24:00,75.0,64.5,30.05,NE,47,10.4,10.4,70,0.00,CLR,,0.00,744.0,WeatherDisplay:10.37,2013-01-31 21:24:00,
2013-01-31 11:29:00,75.2,64.3,30.04,NNE,22,6.9,6.9,69,0.00,CLR,,0.00,752.0,WeatherDisplay:10.37,2013-01-31 21:29:00,
2013-01-31 11:34:00,75.4,64.5,30.04,ENE,78,5.8,5.8,69,0.00,CLR,,0.00,759.0,WeatherDisplay:10.37,2013-01-31 21:34:00,
2013-01-31 11:39:00,75.7,64.8,30.04,NE,47,11.5,11.5,69,0.00,CLR,,0.00,777.0,WeatherDisplay:10.37,2013-01-31 21:39:00,
2013-01-31 11:44:00,75.6,64.3,30.03,NNW,333,9.2,9.2,68,0.00,CLR,,0.00,749.0,WeatherDisplay:10.37,2013-01-31 21:44:00,
2013-01-31 11:49:00,75.6,64.3,30.03,ENE,64,11.5,11.5,68,0.00,CLR,,0.00,779.0,WeatherDisplay:10.37,2013-01-31 21:49:00,
2013-01-31 11:54:00,75.7,64.4,30.03,NNE,28,10.4,10.4,68,0.00,OVC,,0.00,160.0,WeatherDisplay:10.37,2013-01-31 21:54:00,
2013-01-31 11:59:00,75.7,64.0,30.04,NE,42,11.5,11.5,67,0.00,CLR,,0.00,789.0,WeatherDisplay:10.37,2013-01-31 21:59:00,
2013-01-31 12:04:00,76.0,64.2,30.03,NE,42,9.2,9.2,67,0.00,CLR,,0.00,826.0,WeatherDisplay:10.37,2013-01-31 22:04:00,
2013-01-31 12:09:00,76.3,64.1,30.03,NE,40,3.5,3.5,66,0.00,CLR,,0.00,847.0,WeatherDisplay:10.37,2013-01-31 22:09:00,
2013-01-31 12:14:00,76.4,63.8,30.02,NE,34,6.9,6.9,65,0.00,CLR,,0.00,759.0,WeatherDisplay:10.37,2013-01-31 22:14:00,
2013-01-31 12:19:00,76.6,64.4,30.02,ENE,78,8.1,8.1,66,0.00,CLR,,0.00,854.0,WeatherDisplay:10.37,2013-01-31 22:19:00,
2013-01-31 12:24:00,76.4,64.2,30.03,North,5,8.1,8.1,66,0.00,OVC,,0.00,176.0,WeatherDisplay:10.37,2013-01-31 22:24:00,
2013-01-31 12:29:00,76.1,63.0,30.03,NE,38,8.1,8.1,64,0.00,CLR,,0.00,872.0,WeatherDisplay:10.37,2013-01-31 22:29:00,
2013-01-31 12:34:00,76.3,63.2,30.02,NE,37,4.6,4.6,64,0.00,CLR,,0.00,571.0,WeatherDisplay:10.37,2013-01-31 22:34:00,
2013-01-31 12:39:00,76.7,64.0,30.02,ENE,67,8.1,8.1,65,0.00,CLR,,0.00,962.0,WeatherDisplay:10.37,2013-01-31 22:39:00,
2013-01-31 12:44:00,77.3,64.2,30.02,NE,40,5.8,5.8,64,0.00,CLR,,0.00,891.0,WeatherDisplay:10.37,2013-01-31 22:44:00,
2013-01-31 12:49:00,77.6,64.0,30.02,ENE,74,10.4,10.4,63,0.00,OVC,,0.00,181.0,WeatherDisplay:10.37,2013-01-31 22:49:00,
2013-01-31 12:54:00,77.1,63.5,30.01,East,93,8.1,8.1,63,0.00,CLR,,0.00,939.0,WeatherDisplay:10.37,2013-01-31 22:54:00,
2013-01-31 12:59:00,76.8,63.2,30.01,North,355,11.5,11.5,63,0.00,OVC,,0.00,237.0,WeatherDisplay:10.37,2013-01-31 22:59:00,
2013-01-31 13:04:00,76.4,62.9,30.01,ENE,76,4.6,4.6,63,0.00,CLR,,0.00,902.0,WeatherDisplay:10.37,2013-01-31 23:04:00,
2013-01-31 13:09:00,76.5,63.9,30.01,NE,49,6.9,6.9,65,0.00,OVC,,0.00,236.0,WeatherDisplay:10.37,2013-01-31 23:09:00,
2013-01-31 13:14:00,76.5,63.4,30.00,ENE,73,10.4,10.4,64,0.00,CLR,,0.00,933.0,WeatherDisplay:10.37,2013-01-31 23:14:00,
2013-01-31 13:19:00,76.7,64.0,30.00,NNE,22,8.1,8.1,65,0.00,CLR,,0.00,912.0,WeatherDisplay:10.37,2013-01-31 23:19:00,
2013-01-31 13:24:00,77.0,63.9,30.00,NE,55,8.1,8.1,64,0.00,CLR,,0.00,893.0,WeatherDisplay:10.37,2013-01-31 23:24:00,
2013-01-31 13:29:00,77.4,63.8,30.00,NE,46,12.7,12.7,63,0.00,CLR,,0.00,942.0,WeatherDisplay:10.37,2013-01-31 23:29:00,
2013-01-31 13:34:00,77.6,64.0,30.00,ENE,57,10.4,10.4,63,0.00,CLR,,0.00,932.0,WeatherDisplay:10.37,2013-01-31 23:34:00,
2013-01-31 13:39:00,77.5,64.4,30.00,ENE,59,4.6,4.6,64,0.00,CLR,,0.00,861.0,WeatherDisplay:10.37,2013-01-31 23:39:00,
2013-01-31 13:44:00,77.6,64.0,30.00,North,355,7.0,7.0,63,0.00,CLR,,0.00,919.0,WeatherDisplay:10.37,2013-01-31 23:44:00,
2013-01-31 13:49:00,77.5,64.4,30.00,ENE,63,6.9,6.9,64,0.00,FEW,,0.00,462.0,WeatherDisplay:10.37,2013-01-31 23:49:00,
2013-01-31 13:54:00,77.0,64.3,29.99,NNE,27,11.5,11.5,65,0.00,BKN,,0.00,345.0,WeatherDisplay:10.37,2013-01-31 23:54:00,
2013-01-31 13:59:00,76.6,64.0,30.00,ENE,73,5.8,5.8,65,0.00,CLR,,0.00,809.0,WeatherDisplay:10.37,2013-01-31 23:59:00,
2013-01-31 14:04:00,76.6,64.0,29.99,ENE,57,9.2,9.2,65,0.00,CLR,,0.00,823.0,WeatherDisplay:10.37,2013-02-01 00:04:00,
2013-01-31 14:09:00,76.8,64.1,29.99,NE,40,10.4,10.4,65,0.00,CLR,,0.00,888.0,WeatherDisplay:10.37,2013-02-01 00:09:00,
2013-01-31 14:14:00,76.9,64.7,29.99,NNE,22,11.5,11.5,66,0.00,CLR,,0.00,807.0,WeatherDisplay:10.37,2013-02-01 00:14:00,
2013-01-31 14:19:00,76.7,64.0,29.98,ENE,59,11.5,11.5,65,0.00,CLR,,0.00,752.0,WeatherDisplay:10.37,2013-02-01 00:19:00,
2013-01-31 14:24:00,76.7,64.5,29.99,ENE,71,10.4,10.4,66,0.00,CLR,,0.00,752.0,WeatherDisplay:10.37,2013-02-01 00:24:00,
2013-01-31 14:29:00,76.6,63.5,29.98,NNW,346,13.8,13.8,64,0.00,CLR,,0.00,745.0,WeatherDisplay:10.37,2013-02-01 00:29:00,
2013-01-31 14:34:00,76.5,64.3,29.98,NE,46,6.9,6.9,66,0.00,CLR,,0.00,754.0,WeatherDisplay:10.37,2013-02-01 00:34:00,
2013-01-31 14:39:00,76.6,64.0,29.98,NNE,32,11.5,11.5,65,0.00,SCT,,0.00,717.0,WeatherDisplay:10.37,2013-02-01 00:39:00,
2013-01-31 14:44:00,76.4,64.2,29.98,NNW,344,8.1,8.1,66,0.00,CLR,,0.00,751.0,WeatherDisplay:10.37,2013-02-01 00:44:00,
2013-01-31 14:49:00,76.5,64.3,29.98,ENE,70,9.2,9.2,66,0.00,CLR,,0.00,729.0,WeatherDisplay:10.37,2013-02-01 00:49:00,
2013-01-31 14:54:00,76.9,64.7,29.98,NE,47,11.5,11.5,66,0.00,CLR,,0.00,756.0,WeatherDisplay:10.37,2013-02-01 00:54:00,
2013-01-31 14:59:00,76.9,64.2,29.98,NE,41,6.9,6.9,65,0.00,CLR,,0.00,758.0,WeatherDisplay:10.37,2013-02-01 00:59:00,
2013-01-31 15:04:00,77.2,65.0,29.98,NE,49,8.1,8.1,66,0.00,CLR,,0.00,840.0,WeatherDisplay:10.37,2013-02-01 01:04:00,
2013-01-31 15:09:00,76.7,64.0,29.98,ENE,76,8.0,8.0,65,0.00,CLR,,0.00,656.0,WeatherDisplay:10.37,2013-02-01 01:09:00,
2013-01-31 15:14:00,76.5,64.3,29.98,ENE,61,7.0,7.0,66,0.00,CLR,,0.00,622.0,WeatherDisplay:10.37,2013-02-01 01:14:00,
2013-01-31 15:19:00,76.6,64.8,29.98,ENE,70,10.4,10.4,67,0.00,CLR,,0.00,777.0,WeatherDisplay:10.37,2013-02-01 01:19:00,
2013-01-31 15:24:00,76.6,64.4,29.98,NNE,27,6.9,6.9,66,0.00,BKN,,0.00,223.0,WeatherDisplay:10.37,2013-02-01 01:24:00,
2013-01-31 15:29:00,76.1,63.9,29.98,North,9,5.8,5.8,66,0.00,BKN,,0.00,218.0,WeatherDisplay:10.37,2013-02-01 01:29:00,
2013-01-31 15:34:00,75.8,64.5,29.98,ENE,70,8.1,8.1,68,0.00,CLR,,0.00,566.0,WeatherDisplay:10.37,2013-02-01 01:34:00,
2013-01-31 15:39:00,76.0,64.2,29.98,East,82,9.2,9.2,67,0.00,CLR,,0.00,608.0,WeatherDisplay:10.37,2013-02-01 01:39:00,
2013-01-31 15:44:00,76.0,64.2,29.98,North,10,6.9,6.9,67,0.00,CLR,,0.00,336.0,WeatherDisplay:10.37,2013-02-01 01:44:00,
2013-01-31 15:49:00,75.9,64.2,29.98,North,360,10.4,10.4,67,0.00,CLR,,0.00,548.0,WeatherDisplay:10.37,2013-02-01 01:49:00,
2013-01-31 15:54:00,75.6,64.3,29.98,ENE,58,3.5,3.5,68,0.00,CLR,,0.00,512.0,WeatherDisplay:10.37,2013-02-01 01:54:00,
2013-01-31 15:59:00,75.7,64.4,29.98,NNW,335,6.9,6.9,68,0.00,CLR,,0.00,462.0,WeatherDisplay:10.37,2013-02-01 01:59:00,
2013-01-31 16:04:00,75.5,63.8,29.99,East,86,9.2,9.2,67,0.00,CLR,,0.00,446.0,WeatherDisplay:10.37,2013-02-01 02:04:00,
2013-01-31 16:09:00,75.3,64.0,29.99,NE,35,5.0,5.0,68,0.00,CLR,,0.00,436.0,WeatherDisplay:10.37,2013-02-01 02:09:00,
2013-01-31 16:14:00,75.2,64.3,29.99,NNE,17,9.2,9.2,69,0.00,CLR,,0.00,410.0,WeatherDisplay:10.37,2013-02-01 02:14:00,
2013-01-31 16:19:00,75.0,64.1,29.99,ENE,71,8.1,8.1,69,0.00,CLR,,0.00,385.0,WeatherDisplay:10.37,2013-02-01 02:19:00,
2013-01-31 16:24:00,74.9,63.2,29.99,NNE,12,9.2,9.2,67,0.00,CLR,,0.00,392.0,WeatherDisplay:10.37,2013-02-01 02:24:00,
2013-01-31 16:29:00,74.8,63.9,29.99,NE,49,10.4,10.4,69,0.00,CLR,,0.00,418.0,WeatherDisplay:10.37,2013-02-01 02:29:00,
2013-01-31 16:34:00,74.6,63.8,29.99,North,355,9.2,9.2,69,0.00,CLR,,0.00,373.0,WeatherDisplay:10.37,2013-02-01 02:34:00,
2013-01-31 16:39:00,74.5,64.1,29.99,NNE,19,9.2,9.2,70,0.00,CLR,,0.00,385.0,WeatherDisplay:10.37,2013-02-01 02:39:00,
2013-01-31 16:44:00,74.2,63.4,29.99,ENE,63,9.2,9.2,69,0.00,CLR,,0.00,316.0,WeatherDisplay:10.37,2013-02-01 02:44:00,
2013-01-31 16:49:00,73.9,63.5,29.99,NE,46,9.2,9.2,70,0.00,CLR,,0.00,287.0,WeatherDisplay:10.37,2013-02-01 02:49:00,
2013-01-31 16:54:00,73.7,63.3,29.99,North,5,9.2,9.2,70,0.00,CLR,,0.00,269.0,WeatherDisplay:10.37,2013-02-01 02:54:00,
2013-01-31 16:59:00,73.6,63.6,29.99,NE,51,11.5,11.5,71,0.00,CLR,,0.00,244.0,WeatherDisplay:10.37,2013-02-01 02:59:00,
2013-01-31 17:04:00,73.3,63.3,30.00,North,355,6.9,6.9,71,0.00,CLR,,0.00,221.0,WeatherDisplay:10.37,2013-02-01 03:04:00,
2013-01-31 17:09:00,73.2,62.8,30.00,North,5,9.2,9.2,70,0.00,CLR,,0.00,202.0,WeatherDisplay:10.37,2013-02-01 03:09:00,
2013-01-31 17:14:00,73.0,63.0,30.00,NE,48,6.9,6.9,71,0.00,CLR,,0.00,178.0,WeatherDisplay:10.37,2013-02-01 03:14:00,
2013-01-31 17:19:00,72.9,63.3,29.99,ENE,63,9.2,9.2,72,0.00,CLR,,0.00,156.0,WeatherDisplay:10.37,2013-02-01 03:19:00,
2013-01-31 17:24:00,72.6,63.1,30.00,ENE,65,11.5,11.5,72,0.00,CLR,,0.00,135.0,WeatherDisplay:10.37,2013-02-01 03:24:00,
2013-01-31 17:29:00,72.4,63.3,30.00,NE,46,16.1,16.1,73,0.00,CLR,,0.00,114.0,WeatherDisplay:10.37,2013-02-01 03:29:00,
2013-01-31 17:34:00,72.0,62.9,30.00,NNE,19,12.7,12.7,73,0.00,CLR,,0.00,100.0,WeatherDisplay:10.37,2013-02-01 03:34:00,
2013-01-31 17:39:00,71.6,63.3,30.00,NNE,15,13.8,13.8,75,0.00,CLR,,0.00,77.0,WeatherDisplay:10.37,2013-02-01 03:39:00,
2013-01-31 17:44:00,71.3,63.0,30.00,ENE,59,11.5,11.5,75,0.00,CLR,,0.00,62.0,WeatherDisplay:10.37,2013-02-01 03:44:00,
2013-01-31 17:49:00,71.1,62.8,30.00,NNE,13,10.4,10.4,75,0.00,FEW,,0.00,46.0,WeatherDisplay:10.37,2013-02-01 03:49:00,
2013-01-31 17:54:00,70.9,63.0,30.00,North,351,9.2,9.2,76,0.00,FEW,,0.00,39.0,WeatherDisplay:10.37,2013-02-01 03:54:00,
2013-01-31 17:59:00,70.7,62.8,30.00,ENE,59,11.5,11.5,76,0.00,SCT,,0.00,26.0,WeatherDisplay:10.37,2013-02-01 03:59:00,
2013-01-31 18:04:00,70.3,62.7,30.00,NNE,14,11.5,11.5,77,0.00,SCT,,0.00,21.0,WeatherDisplay:10.37,2013-02-01 04:04:00,
2013-01-31 18:09:00,70.2,63.0,30.00,ENE,60,9.2,9.2,78,0.00,CLR,,0.00,18.0,WeatherDisplay:10.37,2013-02-01 04:09:00,
2013-01-31 18:14:00,69.8,62.6,30.00,North,5,9.2,9.2,78,0.00,CLR,,0.00,12.0,WeatherDisplay:10.37,2013-02-01 04:14:00,
2013-01-31 18:19:00,69.5,62.7,30.01,ENE,78,11.5,11.5,79,0.00,CLR,,0.00,9.0,WeatherDisplay:10.37,2013-02-01 04:19:00,
2013-01-31 18:24:00,69.2,62.8,30.01,NNE,27,11.5,11.5,80,0.00,CLR,,0.00,5.0,WeatherDisplay:10.37,2013-02-01 04:24:00,
2013-01-31 18:29:00,68.9,62.8,30.01,NNW,346,8.1,8.1,81,0.00,CLR,,0.00,0.0,WeatherDisplay:10.37,2013-02-01 04:29:00,
2013-01-31 18:34:00,68.7,62.6,30.01,ENE,61,8.1,8.1,81,0.00,CLR,,0.00,0.0,WeatherDisplay:10.37,2013-02-01 04:34:00,
2013-01-31 18:39:00,68.6,62.5,30.01,NNW,347,9.2,9.2,81,0.00,CLR,,0.00,0.0,WeatherDisplay:10.37,2013-02-01 04:39:00,
2013-01-31 18:44:00,68.5,62.8,30.01,NE,41,9.2,9.2,82,0.00,CLR,,0.00,0.0,WeatherDisplay:10.37,2013-02-01 04:44:00,
2013-01-31 18:49:00,68.3,62.6,30.01,NE,43,11.5,11.5,82,0.00,CLR,,0.00,0.0,WeatherDisplay:10.37,2013-02-01 04:49:00,
2013-01-31 18:54:00,68.2,62.8,30.01,ESE,120,5.8,5.8,83,0.00,CLR,,0.00,0.0,WeatherDisplay:10.37,2013-02-01 04:54:00,
2013-01-31 18:59:00,68.0,62.6,30.01,ENE,59,10.4,10.4,83,0.00,CLR,,0.00,0.0,WeatherDisplay:10.37,2013-02-01 04:59:00,
2013-01-31 19:00:00,68.0,62.6,30.02,NE,36,13.8,13.8,83,0.00,CLR,,0.00,0.0,WeatherDisplay:10.37,2013-02-01 05:00:00,
2013-01-31 19:01:00,67.9,62.5,30.01,ENE,78,15.0,15.0,83,0.00,CLR,,0.00,0.0,WeatherDisplay:10.37,2013-02-01 05:01:00,
2013-01-31 19:02:00,67.9,62.5,30.01,NE,52,15.0,15.0,83,0.00,CLR,,0.00,0.0,WeatherDisplay:10.37,2013-02-01 05:02:00,
2013-01-31 19:07:00,67.9,62.5,30.02,NNE,16,10.4,10.4,83,0.00,CLR,,0.00,0.0,WeatherDisplay:10.37,2013-02-01 05:07:00,
2013-01-31 19:12:00,67.8,62.4,30.02,ENE,76,10.4,10.4,83,0.00,CLR,,0.00,0.0,WeatherDisplay:10.37,2013-02-01 05:12:00,
2013-01-31 19:17:00,67.7,62.3,30.02,NE,38,11.5,11.5,83,0.00,CLR,,0.00,0.0,WeatherDisplay:10.37,2013-02-01 05:17:00,
2013-01-31 19:22:00,67.7,62.3,30.02,North,360,8.1,8.1,83,0.00,CLR,,0.00,0.0,WeatherDisplay:10.37,2013-02-01 05:22:00,
2013-01-31 19:27:00,67.7,62.3,30.02,North,349,11.5,11.5,83,0.00,CLR,,0.00,0.0,WeatherDisplay:10.37,2013-02-01 05:27:00,
2013-01-31 19:32:00,67.6,62.3,30.02,NNE,22,10.4,10.4,83,0.00,CLR,,0.00,0.0,WeatherDisplay:10.37,2013-02-01 05:32:00,
2013-01-31 19:37:00,67.5,62.2,30.02,NNW,340,10.4,10.4,83,0.00,CLR,,0.00,0.0,WeatherDisplay:10.37,2013-02-01 05:37:00,
2013-01-31 19:42:00,67.5,62.2,30.02,ENE,70,13.8,13.8,83,0.00,CLR,,0.00,0.0,WeatherDisplay:10.37,2013-02-01 05:42:00,
2013-01-31 19:47:00,67.4,62.1,30.02,NNW,342,11.5,11.5,83,0.00,CLR,,0.00,0.0,WeatherDisplay:10.37,2013-02-01 05:47:00,
2013-01-31 19:52:00,67.5,62.2,30.03,NNE,31,10.4,10.4,83,0.00,CLR,,0.00,0.0,WeatherDisplay:10.37,2013-02-01 05:52:00,
2013-01-31 19:57:00,67.4,62.4,30.03,North,355,10.4,10.4,84,0.00,CLR,,0.00,0.0,WeatherDisplay:10.37,2013-02-01 05:57:00,
2013-01-31 20:02:00,67.4,62.1,30.03,NNE,21,10.4,10.4,83,0.00,CLR,,0.00,0.0,WeatherDisplay:10.37,2013-02-01 06:02:00,
2013-01-31 20:07:00,67.3,62.3,30.03,NNE,14,12.7,12.7,84,0.00,CLR,,0.00,0.0,WeatherDisplay:10.37,2013-02-01 06:07:00,
2013-01-31 20:12:00,67.2,62.2,30.03,East,97,12.7,12.7,84,0.00,CLR,,0.00,0.0,WeatherDisplay:10.37,2013-02-01 06:12:00,
2013-01-31 20:17:00,67.2,62.2,30.03,North,5,16.0,16.0,84,0.00,CLR,,0.00,0.0,WeatherDisplay:10.37,2013-02-01 06:17:00,
2013-01-31 20:22:00,67.2,62.2,30.04,ENE,59,12.7,12.7,84,0.00,CLR,,0.00,0.0,WeatherDisplay:10.37,2013-02-01 06:22:00,
2013-01-31 20:27:00,67.2,62.2,30.04,NNE,20,13.8,13.8,84,0.00,CLR,,0.00,0.0,WeatherDisplay:10.37,2013-02-01 06:27:00,
2013-01-31 20:32:00,67.2,62.2,30.04,NE,45,15.0,15.0,84,0.00,CLR,,0.00,0.0,WeatherDisplay:10.37,2013-02-01 06:32:00,
2013-01-31 20:37:00,67.2,62.2,30.04,North,360,12.7,12.7,84,0.00,CLR,,0.00,0.0,WeatherDisplay:10.37,2013-02-01 06:37:00,
2013-01-31 20:42:00,67.2,62.2,30.04,North,5,13.0,13.0,84,0.00,CLR,,0.00,0.0,WeatherDisplay:10.37,2013-02-01 06:42:00,
2013-01-31 20:47:00,67.1,61.8,30.04,ENE,76,17.3,17.3,83,0.00,CLR,,0.00,0.0,WeatherDisplay:10.37,2013-02-01 06:47:00,
2013-01-31 20:52:00,67.1,61.8,30.04,NNW,347,11.5,11.5,83,0.00,CLR,,0.00,0.0,WeatherDisplay:10.37,2013-02-01 06:52:00,
2013-01-31 20:57:00,67.1,61.8,30.04,NE,38,15.0,15.0,83,0.00,CLR,,0.00,0.0,WeatherDisplay:10.37,2013-02-01 06:57:00,
2013-01-31 21:02:00,67.1,61.8,30.04,NNW,339,11.5,11.5,83,0.00,CLR,,0.00,0.0,WeatherDisplay:10.37,2013-02-01 07:02:00,
2013-01-31 21:07:00,67.0,61.7,30.05,NNE,26,12.7,12.7,83,0.00,CLR,,0.00,0.0,WeatherDisplay:10.37,2013-02-01 07:07:00,
2013-01-31 21:12:00,67.0,61.7,30.05,East,82,11.5,11.5,83,0.00,CLR,,0.00,0.0,WeatherDisplay:10.37,2013-02-01 07:12:00,
2013-01-31 21:17:00,67.1,61.8,30.04,NNE,22,12.0,12.0,83,0.00,CLR,,0.00,0.0,WeatherDisplay:10.37,2013-02-01 07:17:00,
2013-01-31 21:22:00,67.1,61.8,30.05,NNW,338,13.0,13.0,83,0.00,CLR,,0.00,0.0,WeatherDisplay:10.37,2013-02-01 07:22:00,
2013-01-31 21:27:00,67.1,61.8,30.05,NE,40,11.5,11.5,83,0.00,CLR,,0.00,0.0,WeatherDisplay:10.37,2013-02-01 07:27:00,
2013-01-31 21:32:00,67.0,61.3,30.05,North,5,13.8,13.8,82,0.00,CLR,,0.00,0.0,WeatherDisplay:10.37,2013-02-01 07:32:00,
2013-01-31 21:37:00,67.1,61.4,30.05,North,10,10.4,10.4,82,0.00,CLR,,0.00,0.0,WeatherDisplay:10.37,2013-02-01 07:37:00,
2013-01-31 21:42:00,67.1,61.4,30.05,ENE,59,3.5,3.5,82,0.00,CLR,,0.00,0.0,WeatherDisplay:10.37,2013-02-01 07:42:00,
2013-01-31 21:47:00,67.0,61.3,30.05,East,81,16.1,16.1,82,0.00,CLR,,0.00,0.0,WeatherDisplay:10.37,2013-02-01 07:47:00,
2013-01-31 21:52:00,67.0,61.3,30.05,ENE,72,18.4,18.4,82,0.00,CLR,,0.00,0.0,WeatherDisplay:10.37,2013-02-01 07:52:00,
2013-01-31 21:57:00,66.9,61.6,30.05,NE,54,10.4,10.4,83,0.00,CLR,,0.00,0.0,WeatherDisplay:10.37,2013-02-01 07:57:00,
2013-01-31 22:02:00,66.8,61.5,30.04,ENE,67,12.7,12.7,83,0.00,CLR,,0.00,0.0,WeatherDisplay:10.37,2013-02-01 08:02:00,
2013-01-31 22:07:00,66.8,61.8,30.04,NNW,338,11.5,11.5,84,0.00,CLR,,0.00,0.0,WeatherDisplay:10.37,2013-02-01 08:07:00,
2013-01-31 22:12:00,66.7,61.7,30.04,NW,315,11.5,11.5,84,0.00,CLR,,0.00,0.0,WeatherDisplay:10.37,2013-02-01 08:12:00,
2013-01-31 22:17:00,66.7,61.7,30.04,North,350,16.1,16.1,84,0.00,CLR,,0.00,0.0,WeatherDisplay:10.37,2013-02-01 08:17:00,
2013-01-31 22:22:00,66.7,61.7,30.04,North,5,15.0,15.0,84,0.00,CLR,,0.00,0.0,WeatherDisplay:10.37,2013-02-01 08:22:00,
2013-01-31 22:27:00,66.8,61.8,30.04,NE,34,15.0,15.0,84,0.00,CLR,,0.00,0.0,WeatherDisplay:10.37,2013-02-01 08:27:00,
2013-01-31 22:32:00,66.8,61.8,30.04,North,5,13.8,13.8,84,0.00,CLR,,0.00,0.0,WeatherDisplay:10.37,2013-02-01 08:32:00,
2013-01-31 22:37:00,66.8,61.8,30.05,ENE,73,16.1,16.1,84,0.00,CLR,,0.00,0.0,WeatherDisplay:10.37,2013-02-01 08:37:00,
2013-01-31 22:42:00,66.7,61.7,30.04,NE,39,18.4,18.4,84,0.00,CLR,,0.00,0.0,WeatherDisplay:10.37,2013-02-01 08:42:00,
2013-01-31 22:47:00,66.7,61.7,30.04,NE,42,12.7,12.7,84,0.00,CLR,,0.00,0.0,WeatherDisplay:10.37,2013-02-01 08:47:00,
2013-01-31 22:52:00,66.5,61.5,30.04,East,80,15.0,15.0,84,0.00,CLR,,0.00,0.0,WeatherDisplay:10.37,2013-02-01 08:52:00,
2013-01-31 22:57:00,66.5,61.8,30.04,NNE,30,12.0,12.0,85,0.00,CLR,,0.00,0.0,WeatherDisplay:10.37,2013-02-01 08:57:00,
2013-01-31 23:02:00,66.4,61.8,30.04,North,349,17.3,17.3,85,0.00,CLR,,0.00,0.0,WeatherDisplay:10.37,2013-02-01 09:02:00,
2013-01-31 23:07:00,66.3,61.7,30.03,NE,43,17.3,17.3,85,0.00,CLR,,0.00,0.0,WeatherDisplay:10.37,2013-02-01 09:07:00,
2013-01-31 23:12:00,66.3,61.3,30.04,NE,51,19.6,19.6,84,0.00,CLR,,0.00,0.0,WeatherDisplay:10.37,2013-02-01 09:12:00,
2013-01-31 23:17:00,66.3,61.3,30.03,ENE,71,13.8,13.8,84,0.00,CLR,,0.00,0.0,WeatherDisplay:10.37,2013-02-01 09:17:00,
2013-01-31 23:22:00,66.3,61.3,30.04,North,355,13.0,13.0,84,0.00,CLR,,0.00,0.0,WeatherDisplay:10.37,2013-02-01 09:22:00,
2013-01-31 23:27:00,66.3,61.3,30.04,East,92,11.5,11.5,84,0.00,CLR,,0.00,0.0,WeatherDisplay:10.37,2013-02-01 09:27:00,
2013-01-31 23:32:00,66.3,61.0,30.04,North,360,13.8,13.8,83,0.00,CLR,,0.00,0.0,WeatherDisplay:10.37,2013-02-01 09:32:00,
2013-01-31 23:37:00,66.3,61.0,30.04,ENE,65,13.8,13.8,83,0.00,CLR,,0.00,0.0,WeatherDisplay:10.37,2013-02-01 09:37:00,
2013-01-31 23:42:00,66.3,61.0,30.04,NE,36,13.8,13.8,83,0.00,CLR,,0.00,0.0,WeatherDisplay:10.37,2013-02-01 09:42:00,
2013-01-31 23:47:00,66.3,61.0,30.04,ENE,69,19.6,19.6,83,0.00,CLR,,0.00,0.0,WeatherDisplay:10.37,2013-02-01 09:47:00,
2013-01-31 23:52:00,66.3,61.0,30.04,NNE,17,11.5,11.5,83,0.00,CLR,,0.00,0.0,WeatherDisplay:10.37,2013-02-01 09:52:00,
2013-01-31 23:57:00,66.3,61.0,30.04,NNE,17,13.8,13.8,83,0.00,CLR,,0.00,0.0,WeatherDisplay:10.37,2013-02-01 09:57:00,